Regional Weather Roundup
Issued by NWS Mobile, AL

Home | Current Version | Previous Version | Text Only | Print | Product List | Glossary On
Versions: 1 2 3 4 5 6 7 8 9 10 11 12 13 14 15 16 17 18 19 20 21 22 23 24 25 26 27
000
ASUS44 KMOB 051512
RWRMOB
REGIONAL WEATHER ROUNDUP
NATIONAL WEATHER SERVICE MOBILE AL
1000 AM CDT THU MAY 05 2016

NOTE: "FAIR" INDICATES FEW OR NO CLOUDS BELOW 12,000 FEET WITH NO
      SIGNIFICANT WEATHER AND/OR OBSTRUCTIONS TO VISIBILITY.

  * THESE STATIONS ARE PART OF THE UNIVERSITY OF SOUTH ALABAMA
    MESONET AND ARE NOT UNDER NWS OR FAA QUALITY CONTROL.

ALZ061>064-051600-
COASTAL ALABAMA

CITY           SKY/WX    TMP DP  RH WIND       PRES   REMARKS
MOBILE REG APT SUNNY     69  54  58 NE12      29.94R
BROOKLEY FIELD SUNNY     69  54  58 N12       29.94S
USA CAMPUS*    NOT AVBL
DOG RIVER*     NOT AVBL


CITY           SKY/WX    TMP DP  RH WIND       PRES   REMARKS
MOUNT VERNON*  NOT AVBL
SARALAND*      NOT AVBL
BAY MINETTE*   NOT AVBL
LOXLEY*        NOT AVBL
ROBERTSDALE*   NOT AVBL
FAIRHOPE*      NOT AVBL
ELBERTA*       NOT AVBL
FOLEY*         NOT AVBL
GRAND BAY*     NOT AVBL
DAUPHIN ISLND* NOT AVBL
BON SCOUR NWR* NOT AVBL
GULF SHORES    SUNNY     70  54  56 N8        29.91S

$$

ALZ051>060-051600-
INTERIOR SOUTHWEST AND SOUTH CENTRAL ALABAMA

CITY           SKY/WX    TMP DP  RH WIND       PRES   REMARKS
GREENVILLE     SUNNY     66  34  30 N16G22    29.91S
EVERGREEN      SUNNY     67  38  34 N12G18    29.93S
CASTLEBERRY*   NOT AVBL
ATMORE*        NOT AVBL
DIXIE*         NOT AVBL
ANDALUSIA/OPP  SUNNY     72  40  31 N13       29.91R
ANDALUSIA*     NOT AVBL
FLORALA APT    SUNNY     67  43  41 VRB7G20   29.92S
FLORALA*       NOT AVBL

$$

FLZ001>006-051600-
WESTERN FLORIDA PANHANDLE

CITY           SKY/WX    TMP DP  RH WIND       PRES   REMARKS
PENSACOLA      SUNNY     71  50  47 N13       29.90R
NAS PENSACOLA  SUNNY     73  49  42 N8        29.90R
MILTON         SUNNY     69  50  50 N12       29.91R
WHTNG S FIELD  SUNNY     72  52  49 N10       29.91R


CITY           SKY/WX    TMP DP  RH WIND       PRES   REMARKS
WALNUT HILL*   NOT AVBL
JAY*           NOT AVBL
DUKE FIELD     SUNNY     70  46  42 N14       29.90R
CRESTVIEW      SUNNY     70  48  45 NW12G17   29.92R
VALPARAISO     SUNNY     71  48  45 NE13      29.88S
DESTIN         SUNNY     73  51  46 N12       29.89R

$$

MSZ076-079-051600-
INTERIOR SOUTHEAST MISSISSIPPI

CITY           SKY/WX    TMP DP  RH WIND       PRES   REMARKS
LEAKESVILLE*   NOT AVBL
AGRICOLA*      NOT AVBL

$$

MARINE OBSERVATIONS

STATION/POSITION TIME  TEMP    WIND        PRES    WAVE
                       AIR SEA DIR/SP/G            HT/PER
                 (UTC) (F)     (DEG/KT/KT) (MB)    (FT/S)
PASCAGOULA       1400   67     360/  8/ 12 1012.7R
PETIT BOIS ISLND 1412   67      20/ 11/ 13 1013.7R
GRAND BAY        1300   64     360/ 10     1014.0R
KATRINA CUT      1400   67      20/ 11       N/A
CEDAR POINT      1400   67      30/ 10     1012.5R
E DAUPHIN ISLAND 1400   66      10/ 14/ 16 1012.7R
MIDDLE BAY LIGHT 1400   67     360/ 16     1012.9R
USCG MOBILE BAY  1400   65 74   30/ 11/ 14 1013.8R
STATE DOCKS      1400   68                 1013.1R
MEAHER PARK      1400   65     350/  6     1012.9R
WEEKS BAY        1300   66                   N/A
FORT MORGAN      1400   67      30/ 14/ 16 1012.3R
12 S ORANGE BCH  1450   67 74   10/ 12/ 14 1011.9R   2/ 5
PENSACOLA BAY    1400           10/  8/ 13 1012.6R
64 S DAUPHIN ISL 1400   73 75  320/ 14/ 17 1012.3R

$$

SELECTED LOCATIONS ACROSS THE REGION

CITY           SKY/WX    TMP DP  RH WIND       PRES   REMARKS
NEW ORLEANS    SUNNY     74  57  55 N12       29.95S
GULFPORT       SUNNY     72  53  51 NE10      29.93R
PASCAGOULA AP  SUNNY     72  56  57 N8        29.93R
PASCAGOULA*    NOT AVBL
HATTIESBURG    SUNNY     69  50  50 VRB6      29.97S
LAUREL         SUNNY     68  48  49 N7        29.98S
MERIDIAN       SUNNY     66  41  40 N7        29.97R
JACKSON        SUNNY     68  45  43 VRB3      29.99R
MONTGOMERY     SUNNY     66  37  34 NW15      29.92R
TROY           SUNNY     66  40  38 NW13      29.91R
KINSTON*       NOT AVBL
GENEVA*        NOT AVBL
ASHFORD*       NOT AVBL
DOTHAN         SUNNY     68  34  28 NW24      29.91R
PANAMA CITY    SUNNY     71  49  45 NW13G20   29.87R

$$





USA.gov is the U.S. government's official web portal to all federal, state and local government web resources and services.